Regional Weather Roundup
Issued by NWS Newport/Morehead, NC

Current Version | Previous Version | Graphics & Text | Print | Product List | Glossary Off
Versions: 1 2 3 4 5 6 7 8 9 10 11 12 13 14 15 16 17 18 19 20 21 22 23 24 25 26 27 28 29 30 31 32 33 34 35 36 37 38 39 40 41 42 43 44 45 46 47 48 49 50

092
ASUS42 KMHX 230725
RWRMHX
WEATHER ROUNDUP FOR EASTERN NORTH CAROLINA
NATIONAL WEATHER SERVICE NEWPORT/MOREHEAD CITY NC
300 AM EDT THU MAR 23 2017

NOTE: "FAIR" INDICATES FEW OR NO CLOUDS BELOW 12,000 FEET
WITH NO SIGNIFICANT WEATHER AND/OR OBSTRUCTIONS TO VISIBILITY

NCZ015>017-031-032-045>047-102-103-230800-
NORTH COAST

CITY           SKY/WX    TMP DP  RH WIND       PRES   REMARKS
EDENTON        CLEAR     32  27  82 CALM      30.48S
ELIZABETH CITY PTCLDY    38  24  57 NE9       30.48R
KITTY HAWK     NOT AVBL
MANTEO         CLEAR     39  24  56 NE8       30.47S

$$

NCZ045>047-081-094-103-104-230800-
CENTRAL COAST

CITY           SKY/WX    TMP DP  RH WIND       PRES   REMARKS
FRISCO         CLEAR     43  23  45 NE13G21   30.43F

$$

NCZ095-097-098-100-101-230800-
SOUTHERN COAST

CITY           SKY/WX    TMP DP  RH WIND       PRES   REMARKS
BEAUFORT       CLEAR     39  29  67 NE5       30.44S
CEDAR ISLAND   NOT AVBL
JACKSONVILLE   PTCLDY    40  30  67 NE8       30.43F
PINEY ISLAND   SUNNY    N/A N/A N/A NE13G21   30.43F
WILMINGTON     PTCLDY    37  29  72 NE8       30.42S


$$

NCZ011>013-027>030-043-044-078>080-089-090>093-098-230800-
COASTAL PLAIN

CITY           SKY/WX    TMP DP  RH WIND       PRES   REMARKS
AHOSKIE        NOT AVBL
CLINTON        CLEAR     39  31  72 NE3       30.45F
ELIZABETHTOWN  CLEAR     40  30  66 CALM      30.43S
GOLDSBORO      CLEAR     37  28  72 CALM      30.44S
GREENVILLE     CLEAR     30  28  93 CALM      30.47S
HAVELOCK       CLEAR     42  27  55 NE8       30.44F
KENANSVILLE    PTCLDY    34  28  80 CALM      30.45S
KINSTON        PTCLDY    32  28  85 CALM      30.46S
NEW BERN       PTCLDY    38  28  67 E6        30.45F
RICHLANDS      PTCLDY    33  29  85 NE5       30.45S
ROCKY MOUNT    PTCLDY    32  26  78 CALM      30.48R
WASHINGTON     PTCLDY    33  27  76 CALM      30.47S
WHITEVILLE     CLEAR     42  29  61 NE8       30.42R

$$

AMZ130-135-150-152-154-156-158-170-250-252-270-ANZ085-086-088-633-658-670-230800-
MARINE OBSERVATIONS

STATION/POSITION TIME  TEMP    WIND        PRES    WAVE   SWELL
                       AIR SEA DIR/SP/G            HT/PER HT/PER
                 (UTC) (F)     (DEG/KT/KT) (MB)    (FT/S) (FT/S)
CHESAPEAKE LIGHT NOT AVBL
64 E VA BEACH    0650   41 49   20/ 19/ 23 1030.4    9/ 8   5/ 8
DUCK             0700   41 48   30/ 15/ 19 1031.1
2 E DUCK         0700      47                N/A     6/10   2/11
OREGON INLET     0700      51   20/ 10/ 13 1031.3
13E OREGON INLT  NOT AVBL
HATTERAS CG      0700   43 54   40/ 10/ 17 1030.4
DIAMOND BUOY     0650   46 75   20/ 23/ 27 1029.9   10/11   5/11
CAPE LOOKOUT     0700   45      40/ 17/ 20 1030.2
BEAUFORT LAB     0700   41 53  100/  5/  6 1029.8
30 SE NEW RVR IN 0608   50      50/ 19/ 27 1029.8
30 SE NEW RVR IN 0713      64                N/A     6/11   3/11
27 SE WRIGHTSVLE 0708   51 63   80/ 21/ 29 1028.5
5 SE WRIGHTSVLE  0608   50 57   70/ 17/ 33 1029.6
225 S CAPE HAT   0650   61 72   30/ 25/ 29 1024.3    9/10   7/10
41 SE CHARLESTON 0650   60 66   50/ 25/ 33 1025.6    8/ 7   2/11

$$




USA.gov is the U.S. government's official web portal to all federal, state and local government web resources and services.